Time,TemperatureF,DewpointF,PressureIn,WindDirection,WindDirectionDegrees,WindSpeedMPH,WindSpeedGustMPH,Humidity,HourlyPrecipIn,Conditions,Clouds,dailyrainin,SoftwareType,DateUTC
2013-03-22 00:03:00,26.0,17.0,-100.00,WSW,240,9.0,14.0,67,-99.99,,,-99.99,,2013-03-22 04:03:00,
2013-03-22 00:12:00,26.0,17.0,-100.00,WSW,250,9.0,12.0,68,-99.99,,,-99.99,,2013-03-22 04:12:00,
2013-03-22 00:23:00,25.0,17.0,-100.00,WSW,240,10.0,12.0,68,-99.99,,,-99.99,,2013-03-22 04:23:00,
2013-03-22 00:32:00,25.0,16.0,-100.00,WSW,245,9.0,12.0,69,-99.99,,,-99.99,,2013-03-22 04:32:00,
2013-03-22 00:43:00,25.0,17.0,-100.00,WSW,245,7.0,13.0,70,-99.99,,,-99.99,,2013-03-22 04:43:00,
2013-03-22 00:52:00,25.0,17.0,-100.00,West,260,9.0,12.0,70,-99.99,,,-99.99,,2013-03-22 04:52:00,
2013-03-22 01:02:00,25.0,17.0,-100.00,WSW,250,8.0,14.0,70,-99.99,,,-99.99,,2013-03-22 05:02:00,
2013-03-22 01:12:00,25.0,17.0,-100.00,WSW,245,9.0,13.0,69,-99.99,,,-99.99,,2013-03-22 05:12:00,
2013-03-22 01:22:00,26.0,17.0,-100.00,WSW,245,9.0,14.0,68,-99.99,,,-99.99,,2013-03-22 05:22:00,
2013-03-22 01:32:00,26.0,17.0,-100.00,SW,225,8.0,12.0,67,-99.99,,,-99.99,,2013-03-22 05:32:00,
2013-03-22 01:42:00,26.0,17.0,-100.00,SW,230,9.0,13.0,67,-99.99,,,-99.99,,2013-03-22 05:42:00,
2013-03-22 01:52:00,26.0,17.0,-100.00,SW,230,9.0,13.0,67,-99.99,,,-99.99,,2013-03-22 05:52:00,
2013-03-22 02:02:00,25.0,17.0,-100.00,SW,230,7.0,12.0,70,-99.99,,,-99.99,,2013-03-22 06:02:00,
2013-03-22 02:13:00,25.0,17.0,-100.00,WSW,240,9.0,12.0,71,-99.99,,,-99.99,,2013-03-22 06:13:00,
2013-03-22 02:22:00,26.0,18.0,-100.00,SW,230,8.0,14.0,71,-99.99,,,-99.99,,2013-03-22 06:22:00,
2013-03-22 02:32:00,26.0,18.0,-100.00,WSW,245,10.0,16.0,71,-99.99,,,-99.99,,2013-03-22 06:32:00,
2013-03-22 02:42:00,26.0,17.0,-100.00,WSW,250,12.0,19.0,68,-99.99,,,-99.99,,2013-03-22 06:42:00,
2013-03-22 02:52:00,26.0,17.0,-100.00,West,260,10.0,15.0,67,-99.99,,,-99.99,,2013-03-22 06:52:00,
2013-03-22 03:03:00,26.0,17.0,-100.00,West,265,11.0,16.0,67,-99.99,,,-99.99,,2013-03-22 07:03:00,
2013-03-22 03:12:00,26.0,17.0,-100.00,WSW,250,11.0,17.0,67,-99.99,,,-99.99,,2013-03-22 07:12:00,
2013-03-22 03:22:00,26.0,17.0,-100.00,West,260,9.0,14.0,67,-99.99,,,-99.99,,2013-03-22 07:22:00,
2013-03-22 03:32:00,26.0,17.0,-100.00,WSW,255,9.0,16.0,68,-99.99,,,-99.99,,2013-03-22 07:32:00,
2013-03-22 03:42:00,26.0,17.0,-100.00,WSW,245,11.0,17.0,68,-99.99,,,-99.99,,2013-03-22 07:42:00,
2013-03-22 03:52:00,26.0,18.0,-100.00,WSW,250,11.0,16.0,69,-99.99,,,-99.99,,2013-03-22 07:52:00,
2013-03-22 04:03:00,26.0,18.0,-100.00,WSW,250,9.0,15.0,70,-99.99,,,-99.99,,2013-03-22 08:03:00,
2013-03-22 04:13:00,26.0,18.0,-100.00,West,265,10.0,16.0,71,-99.99,,,-99.99,,2013-03-22 08:13:00,
2013-03-22 04:22:00,26.0,19.0,-100.00,West,260,10.0,15.0,73,-99.99,,,-99.99,,2013-03-22 08:22:00,
2013-03-22 04:32:00,26.0,19.0,-100.00,West,260,10.0,15.0,73,-99.99,,,-99.99,,2013-03-22 08:32:00,
2013-03-22 04:42:00,26.0,18.0,-100.00,West,260,12.0,19.0,71,-99.99,,,-99.99,,2013-03-22 08:42:00,
2013-03-22 04:52:00,26.0,17.0,-100.00,WSW,250,10.0,16.0,69,-99.99,,,-99.99,,2013-03-22 08:52:00,
2013-03-22 05:02:00,26.0,17.0,-100.00,West,260,11.0,16.0,69,-99.99,,,-99.99,,2013-03-22 09:02:00,
2013-03-22 05:12:00,26.0,17.0,-100.00,WSW,245,11.0,16.0,68,-99.99,,,-99.99,,2013-03-22 09:12:00,
2013-03-22 05:22:00,26.0,17.0,-100.00,WSW,255,11.0,16.0,68,-99.99,,,-99.99,,2013-03-22 09:22:00,
2013-03-22 05:32:00,26.0,17.0,-100.00,West,270,12.0,16.0,68,-99.99,,,-99.99,,2013-03-22 09:32:00,
2013-03-22 05:42:00,26.0,17.0,-100.00,West,270,12.0,16.0,68,-99.99,,,-99.99,,2013-03-22 09:42:00,
2013-03-22 05:53:00,26.0,17.0,-100.00,West,265,9.0,17.0,69,-99.99,,,-99.99,,2013-03-22 09:53:00,
2013-03-22 06:04:00,26.0,17.0,-100.00,West,275,12.0,15.0,70,-99.99,,,-99.99,,2013-03-22 10:04:00,
2013-03-22 06:12:00,26.0,18.0,-100.00,West,275,9.0,16.0,71,-99.99,,,-99.99,,2013-03-22 10:12:00,
2013-03-22 06:23:00,26.0,18.0,-100.00,West,260,9.0,16.0,71,-99.99,,,-99.99,,2013-03-22 10:23:00,
2013-03-22 06:33:00,26.0,18.0,-100.00,WSW,250,9.0,14.0,71,-99.99,,,-99.99,,2013-03-22 10:33:00,
2013-03-22 06:42:00,26.0,18.0,-100.00,SW,225,7.0,14.0,72,-99.99,,,-99.99,,2013-03-22 10:42:00,
2013-03-22 06:52:00,26.0,18.0,-100.00,WSW,250,9.0,12.0,73,-99.99,,,-99.99,,2013-03-22 10:52:00,
2013-03-22 07:03:00,26.0,18.0,-100.00,WSW,250,9.0,12.0,73,-99.99,,,-99.99,,2013-03-22 11:03:00,
2013-03-22 07:12:00,26.0,19.0,-100.00,WSW,250,9.0,12.0,74,-99.99,,,-99.99,,2013-03-22 11:12:00,
2013-03-22 07:22:00,26.0,19.0,-100.00,WSW,250,7.0,13.0,75,-99.99,,,-99.99,,2013-03-22 11:22:00,
2013-03-22 07:33:00,26.0,19.0,-100.00,WSW,250,7.0,13.0,75,-99.99,,,-99.99,,2013-03-22 11:33:00,
2013-03-22 07:42:00,26.0,19.0,-100.00,WSW,250,7.0,13.0,75,-99.99,,,-99.99,,2013-03-22 11:42:00,
2013-03-22 07:52:00,26.0,19.0,-100.00,West,270,11.0,16.0,74,-99.99,,,-99.99,,2013-03-22 11:52:00,
2013-03-22 08:02:00,26.0,19.0,-100.00,West,260,12.0,16.0,73,-99.99,,,-99.99,,2013-03-22 12:02:00,
2013-03-22 08:12:00,26.0,19.0,-100.00,West,275,10.0,14.0,74,-99.99,,,-99.99,,2013-03-22 12:12:00,
2013-03-22 08:22:00,26.0,19.0,-100.00,West,260,11.0,16.0,73,-99.99,,,-99.99,,2013-03-22 12:22:00,
2013-03-22 08:32:00,26.0,19.0,-100.00,West,270,10.0,17.0,73,-99.99,,,-99.99,,2013-03-22 12:32:00,
2013-03-22 08:42:00,26.0,19.0,-100.00,West,265,11.0,15.0,72,-99.99,,,-99.99,,2013-03-22 12:42:00,
2013-03-22 08:52:00,27.0,19.0,-100.00,West,260,8.0,13.0,72,-99.99,,,-99.99,,2013-03-22 12:52:00,
2013-03-22 09:02:00,27.0,19.0,-100.00,West,270,10.0,13.0,71,-99.99,,,-99.99,,2013-03-22 13:02:00,
2013-03-22 09:12:00,27.0,19.0,-100.00,West,270,10.0,13.0,70,-99.99,,,-99.99,,2013-03-22 13:12:00,
2013-03-22 09:22:00,27.0,19.0,-100.00,West,270,10.0,13.0,70,-99.99,,,-99.99,,2013-03-22 13:22:00,
2013-03-22 09:32:00,27.0,19.0,-100.00,West,265,9.0,14.0,70,-99.99,,,-99.99,,2013-03-22 13:32:00,
2013-03-22 09:42:00,27.0,19.0,-100.00,West,265,9.0,14.0,70,-99.99,,,-99.99,,2013-03-22 13:42:00,
2013-03-22 09:52:00,28.0,19.0,-100.00,West,270,12.0,16.0,68,-99.99,,,-99.99,,2013-03-22 13:52:00,
2013-03-22 10:03:00,28.0,19.0,-100.00,West,270,12.0,16.0,68,-99.99,,,-99.99,,2013-03-22 14:03:00,
2013-03-22 10:12:00,28.0,19.0,-100.00,WSW,240,9.0,15.0,68,-99.99,,,-99.99,,2013-03-22 14:12:00,
2013-03-22 10:22:00,28.0,19.0,-100.00,WSW,250,11.0,16.0,68,-99.99,,,-99.99,,2013-03-22 14:22:00,
2013-03-22 10:32:00,29.0,19.0,-100.00,West,260,9.0,15.0,67,-99.99,,,-99.99,,2013-03-22 14:32:00,
2013-03-22 10:43:00,29.0,19.0,-100.00,West,260,12.0,16.0,66,-99.99,,,-99.99,,2013-03-22 14:43:00,
2013-03-22 10:52:00,29.0,19.0,-100.00,West,260,9.0,19.0,66,-99.99,,,-99.99,,2013-03-22 14:52:00,
2013-03-22 11:03:00,29.0,19.0,-100.00,WSW,240,9.0,13.0,66,-99.99,,,-99.99,,2013-03-22 15:03:00,
2013-03-22 11:12:00,29.0,19.0,-100.00,WSW,240,10.0,16.0,66,-99.99,,,-99.99,,2013-03-22 15:12:00,
2013-03-22 11:22:00,29.0,19.0,-100.00,WSW,250,11.0,16.0,66,-99.99,,,-99.99,,2013-03-22 15:22:00,
2013-03-22 11:33:00,29.0,19.0,-100.00,WSW,250,11.0,16.0,66,-99.99,,,-99.99,,2013-03-22 15:33:00,
2013-03-22 11:42:00,30.0,19.0,-100.00,WSW,255,12.0,17.0,63,-99.99,,,-99.99,,2013-03-22 15:42:00,
2013-03-22 11:52:00,30.0,19.0,-100.00,West,275,7.0,19.0,63,-99.99,,,-99.99,,2013-03-22 15:52:00,
2013-03-22 12:03:00,32.0,20.0,-100.00,West,275,9.0,17.0,61,-99.99,,,-99.99,,2013-03-22 16:03:00,
2013-03-22 12:13:00,31.0,19.0,-100.00,West,270,10.0,16.0,60,-99.99,,,-99.99,,2013-03-22 16:13:00,
2013-03-22 12:23:00,31.0,19.0,-100.00,West,260,10.0,16.0,59,-99.99,,,-99.99,,2013-03-22 16:23:00,
2013-03-22 12:32:00,33.0,19.0,-100.00,West,265,10.0,14.0,57,-99.99,,,-99.99,,2013-03-22 16:32:00,
2013-03-22 12:42:00,34.0,20.0,-100.00,WNW,300,6.0,12.0,55,-99.99,,,-99.99,,2013-03-22 16:42:00,
2013-03-22 12:52:00,34.0,19.0,-100.00,WSW,250,6.0,16.0,54,-99.99,,,-99.99,,2013-03-22 16:52:00,
2013-03-22 13:03:00,35.0,20.0,-100.00,West,265,11.0,16.0,53,-99.99,,,-99.99,,2013-03-22 17:03:00,
2013-03-22 13:12:00,34.0,19.0,-100.00,WSW,245,10.0,16.0,54,-99.99,,,-99.99,,2013-03-22 17:12:00,
2013-03-22 13:23:00,34.0,19.0,-100.00,West,280,6.0,14.0,53,-99.99,,,-99.99,,2013-03-22 17:23:00,
2013-03-22 13:32:00,35.0,19.0,-100.00,SW,235,9.0,16.0,52,-99.99,,,-99.99,,2013-03-22 17:32:00,
2013-03-22 13:42:00,36.0,19.0,-100.00,SW,215,13.0,17.0,51,-99.99,,,-99.99,,2013-03-22 17:42:00,
2013-03-22 13:52:00,35.0,19.0,-100.00,SW,220,10.0,16.0,51,-99.99,,,-99.99,,2013-03-22 17:52:00,
2013-03-22 14:02:00,36.0,20.0,-100.00,West,270,10.0,25.0,50,-99.99,,,-99.99,,2013-03-22 18:02:00,
2013-03-22 14:12:00,36.0,19.0,-100.00,SW,225,10.0,15.0,50,-99.99,,,-99.99,,2013-03-22 18:12:00,
2013-03-22 14:22:00,39.0,21.0,-100.00,SW,230,6.0,12.0,49,-99.99,,,-99.99,,2013-03-22 18:22:00,
2013-03-22 14:33:00,37.0,20.0,-100.00,West,265,11.0,17.0,48,-99.99,,,-99.99,,2013-03-22 18:33:00,
2013-03-22 14:42:00,38.0,20.0,-100.00,SW,235,11.0,17.0,46,-99.99,,,-99.99,,2013-03-22 18:42:00,
2013-03-22 14:52:00,37.0,19.0,-100.00,WSW,250,9.0,18.0,46,-99.99,,,-99.99,,2013-03-22 18:52:00,
2013-03-22 15:02:00,38.0,19.0,-100.00,West,260,9.0,16.0,46,-99.99,,,-99.99,,2013-03-22 19:02:00,
2013-03-22 15:12:00,38.0,19.0,-100.00,SW,215,10.0,18.0,45,-99.99,,,-99.99,,2013-03-22 19:12:00,
2013-03-22 15:22:00,39.0,19.0,-100.00,SSW,210,13.0,18.0,44,-99.99,,,-99.99,,2013-03-22 19:22:00,
2013-03-22 15:32:00,39.0,19.0,-100.00,SW,225,11.0,18.0,44,-99.99,,,-99.99,,2013-03-22 19:32:00,
2013-03-22 15:42:00,40.0,20.0,-100.00,SSW,205,19.0,21.0,44,-99.99,,,-99.99,,2013-03-22 19:42:00,
2013-03-22 15:52:00,39.0,19.0,-100.00,SW,230,11.0,20.0,44,-99.99,,,-99.99,,2013-03-22 19:52:00,
2013-03-22 16:02:00,40.0,20.0,-100.00,West,280,7.0,21.0,44,-99.99,,,-99.99,,2013-03-22 20:02:00,
2013-03-22 16:12:00,40.0,20.0,-100.00,WSW,240,9.0,20.0,43,-99.99,,,-99.99,,2013-03-22 20:12:00,
2013-03-22 16:22:00,40.0,19.0,-100.00,SW,225,7.0,19.0,43,-99.99,,,-99.99,,2013-03-22 20:22:00,
2013-03-22 16:32:00,39.0,19.0,-100.00,WSW,240,10.0,17.0,43,-99.99,,,-99.99,,2013-03-22 20:32:00,
2013-03-22 16:43:00,39.0,19.0,-100.00,WSW,245,11.0,15.0,43,-99.99,,,-99.99,,2013-03-22 20:43:00,
2013-03-22 16:52:00,40.0,19.0,-100.00,WSW,255,13.0,18.0,43,-99.99,,,-99.99,,2013-03-22 20:52:00,
2013-03-22 17:03:00,40.0,20.0,-100.00,West,260,8.0,17.0,43,-99.99,,,-99.99,,2013-03-22 21:03:00,
2013-03-22 17:12:00,40.0,20.0,-100.00,West,260,8.0,17.0,43,-99.99,,,-99.99,,2013-03-22 21:12:00,
2013-03-22 17:22:00,41.0,20.0,-100.00,SW,220,10.0,17.0,42,-99.99,,,-99.99,,2013-03-22 21:22:00,
2013-03-22 17:33:00,41.0,20.0,-100.00,SW,225,10.0,18.0,42,-99.99,,,-99.99,,2013-03-22 21:33:00,
2013-03-22 17:43:00,41.0,20.0,-100.00,WSW,250,9.0,14.0,41,-99.99,,,-99.99,,2013-03-22 21:43:00,
2013-03-22 17:53:00,41.0,19.0,-100.00,SW,215,9.0,17.0,41,-99.99,,,-99.99,,2013-03-22 21:53:00,
2013-03-22 18:03:00,41.0,19.0,-100.00,WSW,245,11.0,17.0,41,-99.99,,,-99.99,,2013-03-22 22:03:00,
2013-03-22 18:12:00,41.0,19.0,-100.00,SW,220,11.0,16.0,41,-99.99,,,-99.99,,2013-03-22 22:12:00,
2013-03-22 18:23:00,41.0,19.0,-100.00,West,260,11.0,15.0,41,-99.99,,,-99.99,,2013-03-22 22:23:00,
2013-03-22 18:32:00,41.0,19.0,-100.00,SSW,210,8.0,13.0,40,-99.99,,,-99.99,,2013-03-22 22:32:00,
2013-03-22 18:42:00,41.0,19.0,-100.00,SW,235,12.0,16.0,40,-99.99,,,-99.99,,2013-03-22 22:42:00,
2013-03-22 18:52:00,41.0,19.0,-100.00,WSW,245,7.0,16.0,41,-99.99,,,-99.99,,2013-03-22 22:52:00,
2013-03-22 19:02:00,41.0,19.0,-100.00,SW,215,10.0,14.0,41,-99.99,,,-99.99,,2013-03-22 23:02:00,
2013-03-22 19:12:00,40.0,19.0,-100.00,WSW,240,9.0,15.0,41,-99.99,,,-99.99,,2013-03-22 23:12:00,
2013-03-22 19:22:00,40.0,18.0,-100.00,SW,225,8.0,13.0,41,-99.99,,,-99.99,,2013-03-22 23:22:00,
2013-03-22 19:32:00,39.0,19.0,-100.00,SW,215,9.0,14.0,42,-99.99,,,-99.99,,2013-03-22 23:32:00,
2013-03-22 19:42:00,39.0,18.0,-100.00,WSW,240,6.0,12.0,43,-99.99,,,-99.99,,2013-03-22 23:42:00,
2013-03-22 19:52:00,38.0,18.0,-100.00,SW,230,6.0,10.0,43,-99.99,,,-99.99,,2013-03-22 23:52:00,
2013-03-22 20:02:00,37.0,18.0,-100.00,SW,220,7.0,9.0,44,-99.99,,,-99.99,,2013-03-23 00:02:00,
2013-03-22 20:12:00,36.0,18.0,-100.00,SW,220,4.0,9.0,46,-99.99,,,-99.99,,2013-03-23 00:12:00,
2013-03-22 20:23:00,35.0,18.0,-100.00,SW,220,6.0,7.0,47,-99.99,,,-99.99,,2013-03-23 00:23:00,
2013-03-22 20:33:00,34.0,17.0,-100.00,SW,215,6.0,6.0,50,-99.99,,,-99.99,,2013-03-23 00:33:00,
2013-03-22 20:42:00,33.0,17.0,-100.00,SSW,210,6.0,7.0,51,-99.99,,,-99.99,,2013-03-23 00:42:00,
2013-03-22 20:52:00,34.0,18.0,-100.00,SW,220,4.0,6.0,51,-99.99,,,-99.99,,2013-03-23 00:52:00,
2013-03-22 21:03:00,33.0,18.0,-100.00,SW,215,6.0,7.0,53,-99.99,,,-99.99,,2013-03-23 01:03:00,
2013-03-22 21:12:00,33.0,18.0,-100.00,SW,220,5.0,7.0,52,-99.99,,,-99.99,,2013-03-23 01:12:00,
2013-03-22 21:22:00,33.0,18.0,-100.00,SW,215,7.0,7.0,54,-99.99,,,-99.99,,2013-03-23 01:22:00,
2013-03-22 21:32:00,33.0,18.0,-100.00,SW,220,6.0,7.0,54,-99.99,,,-99.99,,2013-03-23 01:32:00,
2013-03-22 21:42:00,32.0,18.0,-100.00,SW,220,6.0,8.0,54,-99.99,,,-99.99,,2013-03-23 01:42:00,
2013-03-22 21:52:00,32.0,18.0,-100.00,SW,215,6.0,7.0,55,-99.99,,,-99.99,,2013-03-23 01:52:00,
2013-03-22 22:02:00,32.0,18.0,-100.00,SW,215,7.0,8.0,56,-99.99,,,-99.99,,2013-03-23 02:02:00,
2013-03-22 22:12:00,31.0,18.0,-100.00,SSW,210,6.0,7.0,57,-99.99,,,-99.99,,2013-03-23 02:12:00,
2013-03-22 22:22:00,31.0,18.0,-100.00,SSW,210,6.0,6.0,57,-99.99,,,-99.99,,2013-03-23 02:22:00,
2013-03-22 22:32:00,31.0,18.0,-100.00,SSW,210,6.0,7.0,57,-99.99,,,-99.99,,2013-03-23 02:32:00,
2013-03-22 22:42:00,31.0,18.0,-100.00,SSW,210,6.0,7.0,58,-99.99,,,-99.99,,2013-03-23 02:42:00,
2013-03-22 22:52:00,31.0,18.0,-100.00,SW,225,6.0,7.0,58,-99.99,,,-99.99,,2013-03-23 02:52:00,
2013-03-22 23:02:00,31.0,18.0,-100.00,SW,225,4.0,7.0,58,-99.99,,,-99.99,,2013-03-23 03:02:00,
2013-03-22 23:12:00,31.0,18.0,-100.00,SW,235,4.0,6.0,58,-99.99,,,-99.99,,2013-03-23 03:12:00,
2013-03-22 23:22:00,30.0,18.0,-100.00,WSW,245,4.0,6.0,59,-99.99,,,-99.99,,2013-03-23 03:22:00,
2013-03-22 23:33:00,30.0,18.0,-100.00,SW,235,4.0,5.0,58,-99.99,,,-99.99,,2013-03-23 03:33:00,
2013-03-22 23:43:00,30.0,18.0,-100.00,WSW,245,6.0,6.0,59,-99.99,,,-99.99,,2013-03-23 03:43:00,
2013-03-22 23:53:00,30.0,18.0,-100.00,WSW,245,6.0,7.0,59,-99.99,,,-99.99,,2013-03-23 03:53:00,